logo tempoitalia

Diretta Meteo Washington, Stati Uniti (USA)lunedì 31 agosto ore 01:35

Mappa
Sereno 24 °C Sereno 24 Ore: T.min 21 T.max 29
Ponente Sud Km/h 16.7 Punto di rugiada: 24 °C Umidità: 100% Visibilità: 10 Km
Il sole sorge alle: 06:32 Il sole tramonta alle: 19:41
31 Agosto 2026 01:35 tempo osservato: Sereno Sereno 24 100 1011 vento: Nord S 16.7
31 Agosto 2026 01:15 tempo osservato: Sereno Sereno 25 94 1011 vento: Nord S 16.7
31 Agosto 2026 00:55 tempo osservato: Sereno Sereno 25 94 1011 vento: Nord S 18.5
31 Agosto 2026 00:35 tempo osservato: Sereno Sereno 25 94 1011 vento: Nord S 20.3
31 Agosto 2026 00:15 tempo osservato: Sereno Sereno 26 88 1011 vento: Nord S 20.3
30 Agosto 2026 23:55 tempo osservato: Sereno Sereno 26 88 1011 vento: Nord S 18.5
30 Agosto 2026 23:35 tempo osservato: Sereno Sereno 26 94 1011 vento: Nord S 14.8
30 Agosto 2026 23:15 tempo osservato: Sereno Sereno 25 100 1012 vento: Nord S 14.8
30 Agosto 2026 22:55 tempo osservato: Sereno Sereno 25 100 1012 vento: Nord S/SE 13
30 Agosto 2026 22:35 tempo osservato: Sereno Sereno 25 100 1012 vento: Nord S/SE 14.8
30 Agosto 2026 22:15 tempo osservato: Sereno Sereno 25 100 1012 vento: Nord S/SE 13
30 Agosto 2026 21:55 tempo osservato: Sereno Sereno 25 100 1012 vento: Nord S/SE 14.8
30 Agosto 2026 21:35 tempo osservato: Sereno Sereno 25 100 1012 vento: Nord S/SE 13
30 Agosto 2026 21:15 tempo osservato: Sereno Sereno 25 100 1012 vento: Nord S/SE 11.1
30 Agosto 2026 20:55 tempo osservato: Sereno Sereno 25 100 1012 vento: Nord SE 13
30 Agosto 2026 20:35 tempo osservato: Sereno Sereno 25 100 1011 vento: Nord S/SE 11.1
30 Agosto 2026 20:15 tempo osservato: Sereno Sereno 25 100 1011 vento: Nord S/SE 13
30 Agosto 2026 19:55 tempo osservato: Sereno Sereno 25 100 1011 vento: Nord SE 13
30 Agosto 2026 19:35 tempo osservato: Sereno Sereno 26 100 1011 vento: Nord SE 13
30 Agosto 2026 19:15 tempo osservato: Sereno Sereno 27 100 1011 vento: Nord SE 13
30 Agosto 2026 18:55 tempo osservato: Sereno Sereno 28 88 1011 vento: Nord S/SE 16.7
30 Agosto 2026 18:35 tempo osservato: Sereno Sereno 28 94 1011 vento: Nord SE 16.7
30 Agosto 2026 18:15 tempo osservato: Sereno Sereno 29 83 1011 vento: Nord SE 16.7
30 Agosto 2026 17:55 tempo osservato: Sereno Sereno 29 89 1011 vento: Nord SE 18.5
30 Agosto 2026 17:35 tempo osservato: Sereno Sereno 29 94 1011 vento: Nord SE 14.8
30 Agosto 2026 17:15 tempo osservato: Sereno Sereno 28 94 1011 vento: Nord SE 18.5
30 Agosto 2026 16:55 tempo osservato: Sereno Sereno 28 94 1011 vento: Nord SE 22.2
30 Agosto 2026 16:35 tempo osservato: Sereno Sereno 28 94 1012 vento: Nord SE 20.3
30 Agosto 2026 16:15 tempo osservato: Sereno Sereno 28 88 1012 vento: Nord SE 18.5
30 Agosto 2026 15:55 tempo osservato: Sereno Sereno 27 100 1012 vento: Nord SE 16.7
30 Agosto 2026 15:35 tempo osservato: Sereno Sereno 27 94 1012 vento: Nord E/SE 16.7
30 Agosto 2026 15:15 tempo osservato: Sereno Sereno 26 94 1013 vento: Nord E/SE 18.5
30 Agosto 2026 14:55 tempo osservato: Sereno Sereno 26 94 1013 vento: Nord E/SE 14.8
30 Agosto 2026 14:35 tempo osservato: Sereno Sereno 26 94 1013 vento: Nord SE 14.8
30 Agosto 2026 14:15 tempo osservato: Sereno Sereno 25 100 1013 vento: Nord SE 16.7
30 Agosto 2026 13:55 tempo osservato: Sereno Sereno 24 100 1013 vento: Nord E/SE 13
30 Agosto 2026 13:35 tempo osservato: Sereno Sereno 23 100 1014 vento: Nord E/NE 9.3
30 Agosto 2026 13:15 tempo osservato: Pioggia Pioggia 24 100 1014 vento: Nord E/SE 11.1
30 Agosto 2026 12:55 tempo osservato: Pioggia Pioggia 23 100 1014 vento: Nord N 0
30 Agosto 2026 12:35 tempo osservato: Poco Nuvoloso Poco Nuvoloso 23 100 1013 vento: Nord S/SO 14.8
30 Agosto 2026 12:15 tempo osservato: Nuvoloso Nuvoloso 25 88 1013 vento: Nord S/SO 9.3
30 Agosto 2026 11:55 tempo osservato: Poco Nuvoloso Poco Nuvoloso 25 94 1013 vento: Nord N 0
30 Agosto 2026 11:35 tempo osservato: Sereno Sereno 25 88 1012 vento: Nord S/SO 14.8
30 Agosto 2026 11:15 tempo osservato: Sereno Sereno 25 88 1012 vento: Nord S 14.8
30 Agosto 2026 10:55 tempo osservato: Sereno Sereno 25 88 1012 vento: Nord S/SO 20.3
30 Agosto 2026 10:35 tempo osservato: Sereno Sereno 25 88 1012 vento: Nord S/SO 22.2
30 Agosto 2026 10:15 tempo osservato: Sereno Sereno 24 94 1012 vento: Nord S/SO 20.3
30 Agosto 2026 09:55 tempo osservato: Sereno Sereno 23 94 1012 vento: Nord S/SO 18.5
30 Agosto 2026 09:35 tempo osservato: Sereno Sereno 22 100 1012 vento: Nord S 16.7
30 Agosto 2026 09:15 tempo osservato: Pioggia Pioggia 21 100 1012 vento: Nord S/SO 20.3
30 Agosto 2026 08:55 tempo osservato: Nuvoloso Nuvoloso 22 78 1012 vento: Nord S/SO 13
30 Agosto 2026 08:35 tempo osservato: Nuvoloso Nuvoloso 22 78 1012 vento: Nord S 16.7
30 Agosto 2026 08:15 tempo osservato: Nuvoloso Nuvoloso 23 73 1011 vento: Nord S 22.2
30 Agosto 2026 07:55 tempo osservato: Sereno Sereno 23 73 1012 vento: Nord S/SO 18.5
30 Agosto 2026 07:35 tempo osservato: Sereno Sereno 22 78 1011 vento: Nord S/SO 20.3
30 Agosto 2026 07:15 tempo osservato: Poco Nuvoloso Poco Nuvoloso 21 82 1012 vento: Nord S/SO 18.5
30 Agosto 2026 06:55 tempo osservato: Poco Nuvoloso Poco Nuvoloso 22 73 1012 vento: Nord S/SO 16.7
30 Agosto 2026 06:35 tempo osservato: Nuvoloso Nuvoloso 22 73 1012 vento: Nord S/SO 20.3
30 Agosto 2026 06:15 tempo osservato: Poco Nuvoloso Poco Nuvoloso 22 73 1012 vento: Nord S/SO 18.5
30 Agosto 2026 05:55 tempo osservato: Poco Nuvoloso Poco Nuvoloso 22 73 1012 vento: Nord S/SO 18.5
30 Agosto 2026 05:35 tempo osservato: Poco Nuvoloso Poco Nuvoloso 22 73 1012 vento: Nord S/SO 16.7
30 Agosto 2026 05:15 tempo osservato: Nuvoloso Nuvoloso 22 73 1012 vento: Nord S/SO 16.7
30 Agosto 2026 04:55 tempo osservato: Molto Nuvoloso Molto Nuvoloso 22 73 1012 vento: Nord S 16.7
30 Agosto 2026 04:35 tempo osservato: Molto Nuvoloso Molto Nuvoloso 22 73 1012 vento: Nord S 20.3
30 Agosto 2026 04:15 tempo osservato: Molto Nuvoloso Molto Nuvoloso 22 73 1012 vento: Nord S/SO 18.5
30 Agosto 2026 03:55 tempo osservato: Molto Nuvoloso Molto Nuvoloso 22 73 1012 vento: Nord S/SO 18.5
30 Agosto 2026 03:35 tempo osservato: Molto Nuvoloso Molto Nuvoloso 22 73 1012 vento: Nord S/SO 18.5
30 Agosto 2026 03:15 tempo osservato: Molto Nuvoloso Molto Nuvoloso 23 68 1012 vento: Nord S/SO 20.3
30 Agosto 2026 02:55 tempo osservato: Nuvoloso Nuvoloso 23 68 1012 vento: Nord S/SO 20.3
30 Agosto 2026 02:35 tempo osservato: Nuvoloso Nuvoloso 23 68 1012 vento: Nord S 20.3
30 Agosto 2026 02:15 tempo osservato: Sereno Sereno 23 68 1012 vento: Nord S 20.3
30 Agosto 2026 01:55 tempo osservato: Sereno Sereno 23 68 1012 vento: Nord S 22.2
30 Agosto 2026 01:35 tempo osservato: Sereno Sereno 23 68 1012 vento: Nord S 22.2